Showing default

ORBCOMM FM 19, 25415

Orbit data source: Space-Track

ORBCOMM FM 19, 25415 is a payload satellite owned by Orbcomm (US) in LEO that was launched on Sun, 02 Aug 1998 UTC via a PEGASUS XL/HAPS launch vehicle from the Pegasus Launch, Eastern Range Air Space (ERAS). Payload-class satellites include a variety of spacecraft equipped with specific instruments for various scientific and technological missions. These include communications satellites like Starlink; space stations such as the ISS; scientific satellites like the Hubble; Earth observation satellites from companies like Planet Labs, Umbra, and HawkEye 360; GPS; miniature CubeSats for education and research; and military/defense satellites.

Loading next visibility...
Identifier
25415, 1998-046C
Orbit
LEO
Country
Flag of USUS / ORB
Related business
Manufacturer
OSC-Germantown
Mission
Operational Commercial Communications
Bus & Motor
MICROSTAR, Unknown motor
Mass
42 kg wet, 42 kg dry
Launch date (UTC)
1998-08-02 (28 years ago)
Launch vehicle
PEGASUS XL/HAPS
Launch site
Pegasus Launch, Eastern Range Air Space (ERAS)
Object type
Payload
Rocket body
Debris
Shape & HBR
Cyl + 2 Pan, 4.2 m
Radar Cross Section
1.484 m², Medium (>0.1 m² and < 1m²)

Expand to show TLE details & history
Last TLE update: 4 hours ago

TLE from 4 hours ago
0 ORBCOMM FM 19
1 25415U 98046C   26038.28188206  .00001884  00000-0  64800-3 0  9990
2 25415  44.9934 140.9055 0001721 359.2185  29.1921 14.39181458438069
Epoch: 2026-02-07T06:45Z
TLE epoch observation values (Epoch: 2026-02-07T06:45:54.609Z)
Latitude
19.71836°
Longitude
-77.08923°
Altitude
759.691 km
Speed
7.478 km/s
True Right ascension
10h 47m 11s
True Declination
19° 36' 34"
Sunlit
Object was in full shadow at epoch
Visualization orbit readout
Latitude
Unknown
Longitude
Unknown
Altitude
Unknown
Speed
Unknown
Apparent Right ascension
Unknown
Apparent Declination
Unknown
Sunlit
N/A
Visualization observer readout
Local Sidereal Time
12:55:49
Azimuth
Unknown
Elevation
Unknown
Doppler factor
Unknown
Orbital elements
Apogee altitude
763.981 km
Perigee altitude
761.523 km
Semi-major axis
7,140.889 km
Eccentricity
0.00017
Inclination
44.9934°
RAAN
140.9055°
Arg. of periapsis
359.2185°
True anomaly
29.20172°
Mean anomaly
29.1921°
Eccentric anomaly
29.19691°
Mean motion
3.59679 °/min
Orbital period
100.09 mins
BSTAR
0.000648
Loading maneuver chart data...
Computing Atmospheric mass density...

Documentation

Showing up to 5 results
|